period_start,C,m1,H,J0,J1,J2,J3,J4,J5,JA,JB,JC,JD,JJ,JK,JN,#
2013-10-16 00:00:49,0.14,0.77,0.00,25.67,27.50,30.07,5.92,29.42,1004.40,2046.99,3193.02,3113.15,3386.05,350.44,317.62,6.62,0000 0000 0000 0000 000000
2013-10-16 00:01:49,0.06,0.77,0.00,25.66,27.50,30.14,5.76,29.25,1004.41,2046.99,3192.68,3113.07,3386.00,349.68,316.86,6.63,0000 0000 0000 0000 000000
2013-10-16 00:02:49,0.08,0.77,0.00,25.68,27.50,30.07,5.91,29.21,1004.40,2046.99,3192.26,3113.01,3385.93,350.63,317.81,6.63,0000 0000 0000 0000 000000
2013-10-16 00:03:50,0.07,0.77,0.00,25.67,27.50,30.03,5.90,29.63,1004.41,2046.99,3192.09,3113.00,3385.58,350.30,317.49,6.64,0000 0000 0000 0000 000000
2013-10-16 00:04:50,0.07,0.77,0.00,25.67,27.50,30.13,5.92,29.29,1004.41,2046.99,3192.00,3112.88,3385.24,350.72,317.86,6.65,0000 0000 0000 0000 000000
2013-10-16 00:05:50,0.10,0.77,0.00,25.68,27.50,30.09,5.82,29.54,1004.41,2046.99,3191.78,3112.43,3385.09,349.87,317.08,6.65,0000 0000 0000 0000 000000
2013-10-16 00:06:50,0.17,0.77,0.00,25.68,27.50,30.06,5.83,29.29,1004.41,2046.99,3191.35,3112.17,3385.01,348.87,316.19,6.66,0000 0000 0000 0000 000000
2013-10-16 00:07:51,0.11,0.77,0.00,25.68,27.50,30.07,5.78,29.08,1004.41,2046.99,3191.13,3112.06,3384.97,350.39,317.56,6.66,0000 0000 0000 0000 000000
2013-10-16 00:08:51,0.04,0.77,0.00,25.68,27.50,30.07,5.78,29.33,1004.40,2046.99,3191.01,3112.02,3384.65,349.94,317.34,6.67,0000 0000 0000 0000 000000
2013-10-16 00:09:51,0.07,0.77,0.00,25.72,27.50,30.06,5.80,29.42,1004.41,2046.99,3190.59,3111.95,3384.26,350.04,317.21,6.68,0000 0000 0000 0000 000000
2013-10-16 00:10:51,0.14,0.78,0.00,25.71,27.50,30.13,5.89,29.71,1004.38,2046.99,3190.22,3111.57,3384.10,350.48,317.58,6.68,0000 0000 0000 0000 000000
2013-10-16 00:11:51,0.17,0.78,0.00,25.71,27.50,30.05,5.83,29.42,1004.39,2046.99,3190.08,3111.26,3384.03,350.06,317.23,6.69,0000 0000 0000 0000 000000
2013-10-16 00:12:52,0.07,0.78,0.00,25.71,27.50,30.05,5.80,29.29,1004.38,2046.99,3189.90,3111.10,3383.98,349.67,316.86,6.69,0000 0000 0000 0000 000000
2013-10-16 00:13:52,0.07,0.78,0.00,25.73,27.50,30.11,5.77,29.42,1004.39,2046.99,3189.46,3111.03,3383.68,349.37,316.79,6.70,0000 0000 0000 0000 000000
2013-10-16 00:14:52,0.13,0.78,0.00,25.71,27.50,30.07,5.83,29.50,1004.33,2046.99,3189.19,3111.00,3383.29,349.79,316.95,6.70,0000 0000 0000 0000 000000
2013-10-16 00:15:52,0.08,0.78,0.00,25.72,27.50,30.06,5.89,29.38,1004.30,2046.99,3189.07,3110.98,3383.11,350.38,317.30,6.71,0000 0000 0000 0000 000000
2013-10-16 00:16:53,0.03,0.78,0.00,25.71,27.50,30.10,5.85,29.33,1004.23,2046.99,3189.00,3110.70,3383.04,350.26,317.25,6.72,0000 0000 0000 0000 000000
2013-10-16 00:17:53,0.10,0.78,0.00,25.72,27.50,30.10,5.66,29.33,1004.15,2046.99,3188.67,3110.34,3383.01,348.92,315.92,6.72,0000 0000 0000 0000 000000
2013-10-16 00:18:53,0.13,0.78,0.00,25.74,27.50,30.04,5.80,29.75,1004.11,2046.99,3188.27,3110.15,3382.88,349.50,316.81,6.73,0000 0000 0000 0000 000000
2013-10-16 00:19:53,0.11,0.78,0.00,25.73,27.50,30.10,5.81,29.46,1003.96,2046.99,3188.09,3110.05,3382.50,349.37,316.44,6.73,0000 0000 0000 0000 000000
2013-10-16 00:20:53,0.09,0.78,0.00,25.73,27.50,30.07,5.77,29.46,1003.96,2046.99,3187.99,3110.01,3382.19,350.72,317.67,6.74,0000 0000 0000 0000 000000
2013-10-16 00:21:53,0.06,0.78,0.00,25.72,27.50,30.14,5.86,29.33,1003.93,2046.99,3187.66,3109.94,3382.07,350.78,317.72,6.75,0000 0000 0000 0000 000000
2013-10-16 00:22:54,0.09,0.78,0.00,25.73,27.50,30.11,5.82,29.71,1003.95,2046.99,3187.25,3109.61,3382.01,349.54,316.53,6.75,0000 0000 0000 0000 000000
2013-10-16 00:23:54,0.15,0.78,0.00,25.74,27.50,30.17,5.79,29.21,1003.92,2046.99,3187.09,3109.25,3381.82,349.23,316.30,6.76,0000 0000 0000 0000 000000
2013-10-16 00:24:54,0.12,0.78,0.00,25.76,27.50,30.10,5.83,29.42,1003.93,2046.99,3187.00,3109.09,3381.45,350.77,317.82,6.76,0000 0000 0000 0000 000000
2013-10-16 00:25:54,0.09,0.78,0.00,25.75,27.50,30.15,5.98,29.58,1003.92,2046.99,3186.67,3109.03,3381.18,350.62,317.55,6.77,0000 0000 0000 0000 000000
2013-10-16 00:26:55,0.09,0.78,0.00,25.76,27.50,30.07,5.74,29.29,1003.92,2046.99,3186.27,3108.99,3381.09,349.18,316.22,6.78,0000 0000 0000 0000 000000
2013-10-16 00:27:55,0.07,0.79,0.00,25.75,27.50,30.08,5.86,29.33,1003.92,2046.99,3186.09,3108.76,3381.03,350.00,316.57,6.78,0000 0000 0000 0000 000000
2013-10-16 00:28:55,0.09,0.79,0.00,25.77,27.50,30.10,5.84,29.29,1003.92,2046.99,3185.99,3108.45,3380.97,350.20,317.58,6.79,0000 0000 0000 0000 000000
2013-10-16 00:29:55,0.10,0.79,0.00,25.79,27.50,30.09,5.74,29.54,1003.92,2046.99,3185.70,3108.20,3380.78,348.80,315.93,6.79,0000 0000 0000 0000 000000
2013-10-16 00:30:55,0.13,0.79,0.00,25.76,27.50,30.12,5.81,29.54,1003.90,2046.99,3185.28,3108.08,3380.40,349.51,316.51,6.80,0000 0000 0000 0000 000000
2013-10-16 00:31:56,0.13,0.79,0.00,25.77,27.50,30.14,5.85,29.46,1003.90,2046.99,3185.10,3108.03,3380.16,349.72,316.80,6.80,0000 0000 0000 0000 000000
2013-10-16 00:32:56,0.05,0.79,0.00,25.77,27.50,30.11,5.73,29.08,1003.88,2046.99,3185.03,3108.01,3380.05,349.76,316.73,6.81,0000 0000 0000 0000 000000
2013-10-16 00:33:56,0.02,0.79,0.00,25.80,27.50,30.07,5.68,29.42,1003.87,2046.99,3184.90,3107.98,3380.01,349.47,316.52,6.82,0000 0000 0000 0000 000000
2013-10-16 00:34:56,0.02,0.79,0.00,25.81,27.50,30.12,5.83,29.33,1003.85,2046.99,3184.46,3107.71,3379.97,350.50,317.34,6.82,0000 0000 0000 0000 000000
2013-10-16 00:35:57,0.15,0.79,0.00,25.81,27.50,30.11,5.74,29.54,1003.87,2046.99,3184.17,3107.40,3379.71,349.53,316.46,6.83,0000 0000 0000 0000 000000
2013-10-16 00:36:57,0.15,0.79,0.00,25.81,27.50,30.18,5.78,29.50,1003.73,2046.99,3184.06,3107.15,3379.32,349.91,316.78,6.83,0000 0000 0000 0000 000000
2013-10-16 00:37:57,0.11,0.79,0.00,25.79,27.51,30.13,5.76,29.13,1003.71,2046.99,3184.00,3107.05,3379.11,350.25,317.09,6.84,0000 0000 0000 0000 000000
2013-10-16 00:38:57,0.04,0.79,0.00,25.79,27.51,30.09,6.00,29.33,1003.68,2046.99,3183.61,3107.02,3379.04,351.23,317.98,6.85,0000 0000 0000 0000 000000
2013-10-16 00:39:57,0.08,0.79,0.00,25.79,27.52,30.13,5.86,29.46,1003.49,2046.99,3183.24,3107.00,3379.01,350.44,317.43,6.85,0000 0000 0000 0000 000000
2013-10-16 00:40:58,0.05,0.79,0.00,25.81,27.52,30.10,5.92,29.50,1003.45,2046.99,3183.08,3106.93,3378.96,350.68,317.38,6.86,0000 0000 0000 0000 000000
2013-10-16 00:41:58,0.02,0.79,0.00,25.79,27.52,30.11,5.80,29.63,1003.46,2046.99,3182.94,3106.49,3378.57,349.90,316.70,6.86,0000 0000 0000 0000 000000
2013-10-16 00:42:58,0.22,0.79,0.00,25.80,27.52,30.16,5.87,29.71,1003.45,2046.99,3182.50,3106.19,3378.22,350.07,316.84,6.87,0000 0000 0000 0000 000000
2013-10-16 00:43:58,0.17,0.79,0.00,25.81,27.52,30.15,5.81,29.58,1003.44,2046.99,3182.18,3106.07,3378.08,350.54,316.70,6.87,0000 0000 0000 0000 000000
2013-10-16 00:44:59,0.07,0.80,0.00,25.81,27.52,30.15,5.85,29.54,1003.43,2046.99,3182.06,3106.00,3378.01,350.57,317.27,6.88,0000 0000 0000 0000 000000
2013-10-16 00:45:59,0.03,0.80,0.00,25.82,27.52,30.19,5.87,29.38,1003.43,2046.99,3182.00,3105.97,3377.91,350.33,317.16,6.89,0000 0000 0000 0000 000000
2013-10-16 00:46:59,0.02,0.80,0.00,25.84,27.52,30.19,5.76,29.29,1003.43,2046.99,3181.61,3105.72,3377.59,349.59,316.35,6.89,0000 0000 0000 0000 000000
2013-10-16 00:47:59,0.18,0.80,0.00,25.83,27.52,30.10,5.79,29.38,1003.43,2046.99,3181.25,3105.38,3377.26,349.44,316.44,6.90,0000 0000 0000 0000 000000
2013-10-16 00:49:00,0.17,0.80,0.00,25.86,27.52,30.20,5.83,29.63,1003.43,2046.99,3181.09,3105.15,3377.11,349.83,316.36,6.90,0000 0000 0000 0000 000000
2013-10-16 00:50:00,0.08,0.80,0.00,25.86,27.52,30.17,5.77,29.38,1003.43,2046.99,3180.99,3105.05,3377.03,349.89,316.74,6.91,0000 0000 0000 0000 000000
2013-10-16 00:51:00,0.04,0.80,0.00,25.84,27.52,30.15,5.82,29.38,1003.43,2046.99,3180.58,3105.02,3376.96,349.46,316.24,6.92,0000 0000 0000 0000 000000
2013-10-16 00:52:00,0.07,0.80,0.00,25.83,27.52,30.09,5.75,29.25,1003.43,2046.99,3180.22,3104.92,3376.57,349.87,316.63,6.92,0000 0000 0000 0000 000000
2013-10-16 00:53:00,0.13,0.80,0.00,25.84,27.53,30.14,5.89,29.46,1003.43,2046.99,3180.08,3104.69,3376.23,350.97,317.13,6.93,0000 0000 0000 0000 000000
2013-10-16 00:54:01,0.12,0.80,0.00,25.84,27.54,30.21,5.78,29.46,1003.43,2046.99,3179.94,3104.30,3376.08,349.30,316.09,6.93,0000 0000 0000 0000 000000
2013-10-16 00:55:01,0.11,0.80,0.00,25.85,27.54,30.16,5.83,29.50,1003.41,2046.99,3179.51,3104.12,3376.03,349.86,316.59,6.94,0000 0000 0000 0000 000000
2013-10-16 00:56:01,0.10,0.80,0.00,25.86,27.55,30.25,5.70,29.46,1003.38,2046.99,3179.20,3104.04,3375.98,348.87,315.67,6.94,0000 0000 0000 0000 000000
2013-10-16 00:57:02,0.05,0.80,0.00,25.85,27.55,30.19,5.87,29.58,1003.27,2046.99,3179.07,3104.01,3375.95,349.83,316.51,6.95,0000 0000 0000 0000 000000
2013-10-16 00:58:02,0.03,0.80,0.00,25.84,27.55,30.19,5.67,29.46,1003.20,2046.99,3178.98,3103.93,3375.60,349.21,315.94,6.96,0000 0000 0000 0000 000000
2013-10-16 00:59:02,0.10,0.80,0.00,25.86,27.55,30.22,5.72,29.38,1003.10,2046.99,3178.57,3103.49,3375.23,349.06,316.10,6.96,0000 0000 0000 0000 000000
2013-10-16 01:00:02,0.22,0.80,0.00,25.86,27.55,30.14,5.84,29.50,1003.00,2046.99,3178.21,3103.20,3375.08,350.25,317.02,6.97,0000 0000 0000 0000 000000
2013-10-16 01:01:03,0.12,0.80,0.00,25.86,27.55,30.19,5.91,29.46,1002.96,2046.99,3178.07,3103.07,3375.02,351.19,317.63,6.97,0000 0000 0000 0000 000000
2013-10-16 01:02:03,0.05,0.80,0.00,25.86,27.55,30.18,5.90,29.46,1002.95,2046.99,3177.97,3103.02,3374.96,351.06,317.51,6.98,0000 0000 0000 0000 000000
2013-10-16 01:03:03,0.04,0.81,0.00,25.89,27.55,30.21,5.80,29.58,1002.95,2046.99,3177.61,3102.98,3374.54,350.19,316.70,6.99,0000 0000 0000 0000 000000
2013-10-16 01:04:03,0.13,0.81,0.00,25.90,27.55,30.17,5.88,29.75,1002.95,2046.99,3177.26,3102.71,3374.20,349.79,316.14,6.99,0000 0000 0000 0000 000000
2013-10-16 01:05:04,0.15,0.81,0.00,25.92,27.55,30.28,5.85,29.46,1002.94,2046.99,3177.09,3102.30,3374.07,350.82,317.18,7.00,0000 0000 0000 0000 000000
2013-10-16 01:06:04,0.12,0.81,0.00,25.88,27.56,30.23,5.66,29.58,1002.94,2046.99,3177.01,3102.12,3374.03,348.51,315.18,7.00,0000 0000 0000 0000 000000
2013-10-16 01:07:04,0.05,0.81,0.00,25.89,27.57,30.20,5.92,29.79,1002.94,2046.99,3176.79,3102.05,3373.97,350.31,316.81,7.01,0000 0000 0000 0000 000000
2013-10-16 01:08:04,0.06,0.81,0.00,25.86,27.57,30.22,5.88,29.58,1002.91,2046.99,3176.34,3102.01,3373.62,350.02,316.55,7.01,0000 0000 0000 0000 000000
2013-10-16 01:09:04,0.12,0.81,0.00,25.90,27.57,30.21,5.71,29.54,1002.86,2046.99,3176.12,3101.95,3373.26,349.72,316.24,7.02,0000 0000 0000 0000 000000
2013-10-16 01:10:04,0.09,0.81,0.00,25.90,27.57,30.19,5.86,29.46,1002.89,2046.99,3176.02,3101.71,3373.10,350.16,316.82,7.03,0000 0000 0000 0000 000000
2013-10-16 01:11:05,0.09,0.81,0.00,25.89,27.57,30.18,5.88,29.71,1002.88,2046.99,3175.70,3101.32,3373.03,349.78,316.47,7.03,0000 0000 0000 0000 000000
2013-10-16 01:12:05,0.14,0.81,0.00,25.88,27.57,30.25,5.87,29.67,1002.92,2046.99,3175.30,3101.13,3372.98,350.27,316.78,7.04,0000 0000 0000 0000 000000
2013-10-16 01:13:05,0.09,0.81,0.00,25.89,27.57,30.27,5.94,29.63,1002.94,2046.99,3175.11,3101.05,3372.81,350.33,316.76,7.04,0000 0000 0000 0000 000000
2013-10-16 01:14:05,0.06,0.81,0.00,25.89,27.57,30.21,5.78,29.71,1002.94,2046.99,3175.03,3101.01,3372.41,350.07,316.64,7.05,0000 0000 0000 0000 000000
2013-10-16 01:15:06,0.07,0.81,0.00,25.89,27.58,30.22,5.78,29.21,1002.94,2046.99,3174.95,3100.98,3372.15,350.56,317.03,7.06,0000 0000 0000 0000 000000
2013-10-16 01:16:06,0.06,0.81,0.00,25.92,27.58,30.25,5.65,29.25,1002.94,2046.99,3174.60,3100.80,3372.05,348.69,315.31,7.06,0000 0000 0000 0000 000000
2013-10-16 01:17:06,0.10,0.81,0.00,25.90,27.59,30.26,5.82,29.33,1002.94,2046.99,3174.24,3100.38,3372.01,349.67,316.20,7.07,0000 0000 0000 0000 000000
2013-10-16 01:18:06,0.15,0.81,0.00,25.92,27.60,30.23,5.78,29.25,1002.93,2046.99,3174.08,3100.15,3371.95,350.38,316.18,7.07,0000 0000 0000 0000 000000
2013-10-16 01:19:06,0.07,0.81,0.00,25.92,27.60,30.22,5.83,29.58,1002.92,2046.99,3173.98,3100.05,3371.56,349.33,315.88,7.08,0000 0000 0000 0000 000000
2013-10-16 01:20:07,0.09,0.82,0.00,25.93,27.60,30.27,5.88,29.54,1002.90,2046.99,3173.56,3100.01,3371.21,349.64,316.14,7.09,0000 0000 0000 0000 000000
2013-10-16 01:21:07,0.11,0.82,0.00,25.92,27.60,30.22,5.91,29.58,1002.92,2046.99,3173.22,3099.96,3371.07,350.04,316.52,7.09,0000 0000 0000 0000 000000
2013-10-16 01:22:07,0.07,0.82,0.00,25.91,27.60,30.21,5.79,29.46,1002.92,2046.99,3173.08,3099.75,3371.03,349.38,315.93,7.10,0000 0000 0000 0000 000000
2013-10-16 01:23:07,0.08,0.82,0.00,25.91,27.60,30.30,5.79,29.63,1002.93,2046.99,3173.01,3099.37,3371.00,350.05,316.35,7.10,0000 0000 0000 0000 000000
2013-10-16 01:24:08,0.10,0.82,0.00,25.93,27.60,30.25,5.83,29.58,1002.93,2046.99,3172.87,3099.14,3370.85,349.64,316.15,7.11,0000 0000 0000 0000 000000
2013-10-16 01:25:08,0.09,0.82,0.00,25.94,27.60,30.26,5.78,29.33,1002.93,2046.99,3172.51,3099.05,3370.50,349.94,316.41,7.11,0000 0000 0000 0000 000000
2013-10-16 01:26:08,0.11,0.82,0.00,25.92,27.61,30.31,5.99,29.46,1002.94,2046.99,3172.19,3099.01,3370.19,350.72,317.14,7.12,0000 0000 0000 0000 000000
2013-10-16 01:27:08,0.09,0.82,0.00,25.92,27.62,30.27,5.82,29.46,1002.94,2046.99,3172.07,3098.97,3370.07,350.22,316.70,7.13,0000 0000 0000 0000 000000
2013-10-16 01:28:09,0.04,0.82,0.00,25.93,27.62,30.27,5.76,29.42,1002.94,2046.99,3171.99,3098.87,3370.02,349.54,316.07,7.13,0000 0000 0000 0000 000000
2013-10-16 01:29:09,0.05,0.82,0.00,25.94,27.62,30.30,5.92,29.38,1002.94,2046.99,3171.78,3098.61,3369.98,350.26,316.69,7.14,0000 0000 0000 0000 000000
2013-10-16 01:30:09,0.09,0.82,0.00,25.95,27.62,30.23,5.80,29.38,1002.94,2046.99,3171.37,3098.25,3369.85,350.75,316.66,7.14,0000 0000 0000 0000 000000
2013-10-16 01:31:09,0.16,0.82,0.00,25.96,27.62,30.26,5.85,29.63,1002.94,2046.99,3171.14,3098.10,3369.45,350.51,316.99,7.15,0000 0000 0000 0000 000000
2013-10-16 01:32:09,0.12,0.82,0.00,25.95,27.62,30.29,5.73,29.21,1002.94,2046.99,3171.05,3098.03,3369.18,349.30,316.09,7.16,0000 0000 0000 0000 000000
2013-10-16 01:33:10,0.05,0.82,0.00,25.95,27.62,30.28,5.75,29.25,1002.95,2046.99,3170.94,3098.00,3369.07,349.78,316.26,7.16,0000 0000 0000 0000 000000
2013-10-16 01:34:10,0.03,0.82,0.00,25.94,27.62,30.36,5.82,29.46,1002.97,2046.99,3170.64,3097.95,3369.00,349.38,315.92,7.17,0000 0000 0000 0000 000000
2013-10-16 01:35:10,0.06,0.82,0.00,25.94,27.63,30.25,5.70,29.25,1002.97,2046.99,3170.26,3097.66,3368.95,349.96,316.44,7.17,0000 0000 0000 0000 000000
2013-10-16 01:36:10,0.14,0.82,0.00,25.96,27.64,30.30,5.82,29.67,1002.97,2046.99,3170.09,3097.30,3368.71,350.36,316.78,7.18,0000 0000 0000 0000 000000
2013-10-16 01:37:11,0.13,0.82,0.00,25.97,27.64,30.29,5.79,29.46,1002.95,2046.99,3169.99,3097.11,3368.30,350.00,316.44,7.18,0000 0000 0000 0000 000000
2013-10-16 01:38:11,0.11,0.83,0.00,25.96,27.65,30.35,5.65,29.46,1002.94,2046.99,3169.75,3097.04,3368.11,348.87,315.42,7.19,0000 0000 0000 0000 000000
2013-10-16 01:39:11,0.07,0.83,0.00,25.96,27.65,30.30,5.77,29.54,1002.95,2046.99,3169.34,3097.01,3368.04,349.07,315.61,7.20,0000 0000 0000 0000 000000
2013-10-16 01:40:12,0.06,0.83,0.00,25.96,27.65,30.33,5.85,29.42,1002.94,2046.99,3169.13,3096.96,3367.99,349.33,315.84,7.20,0000 0000 0000 0000 000000
2013-10-16 01:41:12,0.06,0.83,0.00,25.97,27.65,30.33,5.81,29.67,1002.95,2046.99,3169.05,3096.59,3367.76,349.97,316.25,7.21,0000 0000 0000 0000 000000
2013-10-16 01:42:12,0.12,0.83,0.00,25.97,27.65,30.33,5.78,29.67,1002.98,2046.99,3168.97,3096.25,3367.37,349.45,315.95,7.21,0000 0000 0000 0000 000000
2013-10-16 01:43:12,0.13,0.83,0.00,25.97,27.65,30.31,5.92,29.79,1002.96,2046.98,3168.61,3096.09,3367.13,350.54,317.02,7.22,0000 0000 0000 0000 000000
2013-10-16 01:44:12,0.10,0.83,0.00,25.95,27.65,30.33,5.84,29.67,1002.95,2046.99,3168.22,3096.03,3367.04,349.68,316.13,7.23,0000 0000 0000 0000 000000
2013-10-16 01:45:13,0.07,0.83,0.00,25.97,27.65,30.36,5.85,29.71,1002.95,2046.99,3168.08,3096.00,3366.96,349.45,315.94,7.23,0000 0000 0000 0000 000000
2013-10-16 01:46:13,0.04,0.83,0.00,25.96,27.66,30.33,5.86,29.46,1002.94,2046.98,3168.01,3095.83,3366.68,349.91,316.36,7.24,0000 0000 0000 0000 000000
2013-10-16 01:47:13,0.10,0.83,0.00,25.95,27.67,30.34,5.66,29.29,1002.94,2046.98,3167.67,3095.39,3366.27,349.31,315.93,7.24,0000 0000 0000 0000 000000
2013-10-16 01:48:13,0.20,0.83,0.00,25.95,27.67,30.34,5.90,29.25,1002.94,2046.99,3167.26,3095.16,3366.10,351.06,317.18,7.25,0000 0000 0000 0000 000000
2013-10-16 01:49:14,0.12,0.83,0.00,25.99,27.67,30.36,5.67,29.33,1002.94,2046.99,3167.09,3095.07,3366.03,349.42,315.90,7.25,0000 0000 0000 0000 000000
2013-10-16 01:50:14,0.05,0.83,0.00,26.00,27.67,30.32,5.82,29.21,1002.95,2046.99,3167.03,3095.02,3366.01,350.37,316.74,7.26,0000 0000 0000 0000 000000
2013-10-16 01:51:14,0.02,0.83,0.00,25.99,27.67,30.39,5.78,29.33,1002.94,2046.99,3166.97,3095.00,3365.99,350.58,316.90,7.27,0000 0000 0000 0000 000000
2013-10-16 01:52:15,0.03,0.83,0.00,26.00,27.67,30.33,5.75,29.50,1002.94,2046.99,3166.69,3094.96,3365.77,349.10,315.58,7.27,0000 0000 0000 0000 000000
2013-10-16 01:53:15,0.09,0.83,0.00,25.99,27.67,30.26,5.80,29.54,1002.94,2046.99,3166.31,3094.74,3365.36,349.08,315.59,7.28,0000 0000 0000 0000 000000
2013-10-16 01:54:15,0.14,0.83,0.00,25.97,27.67,30.36,5.73,29.50,1002.94,2046.99,3166.13,3094.39,3365.16,350.65,317.25,7.28,0000 0000 0000 0000 000000
2013-10-16 01:55:15,0.13,0.83,0.00,25.97,27.68,30.29,5.94,29.38,1002.94,2046.98,3166.01,3094.15,3365.05,350.91,317.35,7.29,0000 0000 0000 0000 000000
2013-10-16 01:56:16,0.07,0.84,0.00,25.99,27.69,30.35,5.88,29.17,1002.95,2046.98,3165.76,3094.05,3365.02,350.35,316.19,7.30,0000 0000 0000 0000 000000
2013-10-16 01:57:16,0.07,0.84,0.00,25.98,27.69,30.35,5.90,29.63,1002.94,2046.99,3165.36,3094.01,3364.92,350.87,317.24,7.30,0000 0000 0000 0000 000000
2013-10-16 01:58:16,0.09,0.84,0.00,25.96,27.70,30.37,5.88,29.46,1002.96,2046.99,3165.14,3093.88,3364.51,350.34,316.76,7.31,0000 0000 0000 0000 000000
2013-10-16 01:59:16,0.12,0.84,0.00,25.96,27.70,30.27,5.83,29.29,1002.95,2046.98,3165.05,3093.50,3364.19,350.14,316.27,7.31,0000 0000 0000 0000 000000
2013-10-16 02:00:17,0.13,0.84,0.00,25.98,27.70,30.40,5.86,29.46,1002.94,2046.99,3164.92,3093.23,3364.07,350.28,316.79,7.32,0000 0000 0000 0000 000000
2013-10-16 02:01:17,0.10,0.84,0.00,25.99,27.70,30.37,5.79,29.38,1002.94,2046.98,3164.46,3093.08,3364.00,349.23,316.06,7.33,0000 0000 0000 0000 000000
2013-10-16 02:02:17,0.09,0.84,0.00,26.01,27.70,30.40,5.81,29.54,1002.96,2046.98,3164.17,3093.00,3363.86,350.13,316.73,7.33,0000 0000 0000 0000 000000
2013-10-16 02:03:18,0.08,0.84,0.00,26.01,27.70,30.41,5.88,29.58,1002.95,2046.99,3164.05,3092.96,3363.41,350.17,316.55,7.34,0000 0000 0000 0000 000000
2013-10-16 02:04:18,0.10,0.84,0.00,26.02,27.70,30.34,5.80,29.50,1002.95,2046.98,3163.86,3092.64,3363.16,350.17,316.55,7.34,0000 0000 0000 0000 000000
2013-10-16 02:05:18,0.13,0.84,0.00,26.01,27.70,30.40,5.77,29.50,1002.97,2046.99,3163.42,3092.29,3363.05,349.64,316.08,7.35,0000 0000 0000 0000 000000
2013-10-16 02:06:18,0.15,0.84,0.00,26.01,27.70,30.35,5.83,29.38,1002.96,2046.99,3163.15,3092.11,3363.01,350.54,316.88,7.35,0000 0000 0000 0000 000000
2013-10-16 02:07:19,0.08,0.84,0.00,26.01,27.71,30.32,5.74,29.67,1002.95,2046.99,3163.05,3092.04,3362.81,349.20,315.74,7.36,0000 0000 0000 0000 000000
2013-10-16 02:08:19,0.07,0.84,0.00,26.01,27.71,30.42,5.77,29.46,1002.94,2046.97,3162.73,3091.98,3362.34,349.49,315.93,7.37,0000 0000 0000 0000 000000
2013-10-16 02:09:19,0.10,0.84,0.00,26.03,27.72,30.36,5.65,29.42,1002.94,2046.96,3162.32,3091.77,3362.13,349.67,316.07,7.37,0000 0000 0000 0000 000000
2013-10-16 02:10:20,0.12,0.84,0.00,26.03,27.72,30.42,5.83,29.42,1002.94,2046.96,3162.12,3091.38,3362.05,350.27,316.62,7.38,0000 0000 0000 0000 000000
2013-10-16 02:11:20,0.13,0.84,0.00,26.03,27.72,30.40,5.68,29.33,1002.94,2046.96,3162.03,3091.14,3361.98,349.62,316.03,7.38,0000 0000 0000 0000 000000
2013-10-16 02:12:20,0.08,0.85,0.00,26.03,27.72,30.41,5.83,29.58,1002.94,2046.98,3161.81,3091.05,3361.72,349.85,316.23,7.39,0000 0000 0000 0000 000000
2013-10-16 02:13:20,0.10,0.85,0.00,26.03,27.72,30.45,5.88,29.83,1002.94,2046.99,3161.36,3091.01,3361.30,350.16,316.17,7.40,0000 0000 0000 0000 000000
2013-10-16 02:14:21,0.12,0.85,0.00,26.02,27.72,30.41,5.83,29.54,1002.94,2046.98,3161.14,3090.89,3361.11,349.71,316.13,7.40,0000 0000 0000 0000 000000
2013-10-16 02:15:21,0.09,0.85,0.00,26.04,27.72,30.42,5.92,29.46,1002.94,2046.98,3160.98,3090.47,3361.03,350.29,316.62,7.41,0000 0000 0000 0000 000000
2013-10-16 02:16:21,0.11,0.85,0.00,26.05,27.72,30.42,5.87,29.58,1002.94,2046.98,3160.67,3090.18,3360.91,350.12,316.73,7.41,0000 0000 0000 0000 000000
2013-10-16 02:17:21,0.12,0.85,0.00,26.05,27.73,30.43,5.88,29.54,1002.87,2046.95,3160.25,3090.06,3360.47,350.50,316.83,7.42,0000 0000 0000 0000 000000
2013-10-16 02:18:22,0.12,0.85,0.00,26.04,27.73,30.44,5.71,29.46,1002.85,2046.97,3160.09,3090.00,3360.17,349.82,316.17,7.42,0000 0000 0000 0000 000000
2013-10-16 02:19:22,0.09,0.85,0.00,26.03,27.74,30.43,5.88,29.42,1002.74,2046.96,3159.88,3089.72,3360.06,350.01,316.32,7.43,0000 0000 0000 0000 000000
2013-10-16 02:20:22,0.13,0.85,0.00,26.02,27.74,30.45,5.85,29.63,1002.70,2046.97,3159.37,3089.32,3359.98,348.82,315.53,7.44,0000 0000 0000 0000 000000
2013-10-16 02:21:23,0.18,0.85,0.00,26.03,27.75,30.41,5.82,29.63,1002.62,2046.97,3159.13,3089.11,3359.53,350.31,316.77,7.44,0000 0000 0000 0000 000000
2013-10-16 02:22:23,0.10,0.85,0.00,26.03,27.75,30.39,5.74,29.42,1002.55,2046.94,3158.88,3089.03,3359.19,348.95,315.30,7.45,0000 0000 0000 0000 000000
2013-10-16 02:23:23,0.07,0.85,0.00,26.04,27.75,30.42,5.72,29.46,1002.49,2046.93,3158.41,3088.96,3359.07,349.61,315.38,7.45,0000 0000 0000 0000 000000
2013-10-16 02:24:24,0.11,0.85,0.00,26.04,27.75,30.43,5.92,29.50,1002.49,2046.95,3158.15,3088.66,3358.96,350.59,316.62,7.46,0000 0000 0000 0000 000000
2013-10-16 02:25:24,0.14,0.85,0.00,26.05,27.75,30.43,5.70,29.33,1002.47,2046.95,3158.03,3088.26,3358.55,349.03,315.32,7.47,0000 0000 0000 0000 000000
2013-10-16 02:26:24,0.16,0.86,0.00,26.03,27.75,30.43,5.76,29.33,1002.48,2046.95,3157.63,3088.09,3358.21,349.70,316.27,7.47,0000 0000 0000 0000 000000
2013-10-16 02:27:24,0.13,0.86,0.00,26.02,27.75,30.44,5.71,29.42,1002.47,2046.97,3157.25,3088.00,3358.07,349.57,315.84,7.48,0000 0000 0000 0000 000000
2013-10-16 02:28:25,0.09,0.86,0.00,26.01,27.75,30.43,5.86,29.63,1002.48,2046.98,3157.09,3087.88,3358.00,349.69,315.96,7.48,0000 0000 0000 0000 000000
2013-10-16 02:29:25,0.08,0.86,0.00,26.03,27.75,30.43,5.80,29.42,1002.46,2046.97,3156.95,3087.51,3357.68,349.90,316.13,7.49,0000 0000 0000 0000 000000
2013-10-16 02:30:25,0.16,0.86,0.00,26.02,27.75,30.45,5.73,29.29,1002.46,2046.96,3156.50,3087.20,3357.27,349.43,315.71,7.50,0000 0000 0000 0000 000000
2013-10-16 02:31:25,0.16,0.86,0.00,26.02,27.76,30.42,5.71,29.50,1002.46,2046.96,3156.18,3087.07,3357.09,350.25,316.68,7.50,0000 0000 0000 0000 000000
2013-10-16 02:32:26,0.07,0.86,0.00,26.04,27.76,30.45,5.77,29.50,1002.46,2046.95,3156.02,3087.00,3357.00,349.68,315.91,7.51,0000 0000 0000 0000 000000
2013-10-16 02:33:26,0.07,0.86,0.00,26.06,27.77,30.41,5.74,29.38,1002.46,2046.93,3155.69,3086.74,3356.69,349.83,316.31,7.51,0000 0000 0000 0000 000000
2013-10-16 02:34:26,0.15,0.86,0.00,26.06,27.77,30.39,5.80,29.42,1002.45,2046.89,3155.27,3086.33,3356.32,350.30,315.75,7.52,0000 0000 0000 0000 000000
2013-10-16 02:35:27,0.16,0.86,0.00,26.05,27.77,30.46,5.83,29.75,1002.45,2046.85,3155.09,3086.12,3356.11,350.25,316.16,7.52,0000 0000 0000 0000 000000
2013-10-16 02:36:27,0.07,0.86,0.00,26.02,27.77,30.39,5.72,29.29,1002.43,2046.80,3154.85,3086.03,3356.02,349.34,315.83,7.53,0000 0000 0000 0000 000000
2013-10-16 02:37:27,0.03,0.86,0.00,26.02,27.77,30.47,5.90,29.54,1002.42,2046.84,3154.42,3085.96,3355.81,350.01,316.26,7.54,0000 0000 0000 0000 000000